Starlink 11623

operational
NORAD ID: 63276 Int'l Des: 2025-053 Owner: SPXS Country: US Constellation: starlink
LEOCIRCULAR

Über Starlink 11623

Beschreibung wird geladen...

Live-Position

3D-Globus wird geladen...

Nächste Überflüge

Höhenverlauf

Altitude vs Time

uPlot chart will show altitude changes over time

Zweizeiliger Elementsatz

1 63276U 25053M 25354.07042058 .00167719 00000-0 12775-2 0 9999
2 63276 42.9977 232.4912 0001928 40.5388 319.5623 15.70968188 45130
Epoch: 20. Dez. 2025 • Age: 11 hours

Aktueller Status

Höhe 357.9 km
Geschwindigkeit 7.70 km/s
Subsatellitenpunkt 42.34°N, 52.09°E
Startdatum 15. März 2025
Alter 0.7 years
Typ internet

Technische Details

Klassifizierung Payload
Masse 960.00 kg
Trockenmasse 910.00 kg
Gesamtmasse 960.00 kg
Länge 0.30 m
Durchmesser 4.10 m
Spannweite 29.00 m
Form Box + pan
Hersteller SPXS
Bus-Typ Starlink V2MD
Phasenstatus In Orbit
Besitzer/Staat SPXS/US

Große Konstellationen

Loading constellations...